Time,TemperatureF,DewpointF,PressureIn,WindDirection,WindDirectionDegrees,WindSpeedMPH,WindSpeedGustMPH,Humidity,HourlyPrecipIn,Conditions,Clouds,dailyrainin,SolarRadiationWatts/m^2,SoftwareType,DateUTC
2013-12-07 00:02:00,30.0,25.0,-100.00,North,8,2.0,9.0,80,0.00,,,0.11,0.000000,,2013-12-07 08:02:00,
2013-12-07 00:42:00,28.0,23.0,-100.00,ENE,68,0.0,7.0,81,0.00,,,0.11,0.000000,,2013-12-07 08:42:00,
2013-12-07 00:52:00,28.0,23.0,-100.00,ENE,68,0.0,7.0,81,0.00,,,0.11,0.000000,,2013-12-07 08:52:00,
2013-12-07 01:02:00,28.0,23.0,-100.00,ENE,68,0.0,7.0,81,0.00,,,0.11,0.000000,,2013-12-07 09:02:00,
2013-12-07 01:43:00,27.0,22.0,-100.00,NE,41,1.0,8.0,81,0.00,,,0.11,0.000000,,2013-12-07 09:43:00,
2013-12-07 01:53:00,27.0,22.0,-100.00,NE,41,1.0,8.0,81,0.00,,,0.11,0.000000,,2013-12-07 09:53:00,
2013-12-07 02:03:00,27.0,22.0,-100.00,NE,41,1.0,8.0,81,0.00,,,0.11,0.000000,,2013-12-07 10:03:00,
2013-12-07 02:43:00,25.0,21.0,-100.00,ENE,58,0.0,10.0,86,0.00,,,0.11,0.000000,,2013-12-07 10:43:00,
2013-12-07 02:53:00,25.0,21.0,-100.00,ENE,58,0.0,10.0,86,0.00,,,0.11,0.000000,,2013-12-07 10:53:00,
2013-12-07 03:02:00,25.0,21.0,-100.00,ENE,58,0.0,10.0,86,0.00,,,0.11,0.000000,,2013-12-07 11:02:00,
2013-12-07 03:42:00,25.0,21.0,-100.00,NE,41,0.0,5.0,86,0.00,,,0.11,0.000000,,2013-12-07 11:42:00,
2013-12-07 03:52:00,25.0,21.0,-100.00,NE,41,0.0,5.0,86,0.00,,,0.11,0.000000,,2013-12-07 11:52:00,
2013-12-07 04:02:00,25.0,21.0,-100.00,NE,41,0.0,5.0,86,0.00,,,0.11,0.000000,,2013-12-07 12:02:00,
2013-12-07 04:42:00,24.0,20.0,-100.00,West,262,0.0,6.0,85,0.00,,,-99.99,0.000000,,2013-12-07 12:42:00,
2013-12-07 04:52:00,24.0,20.0,-100.00,West,262,0.0,6.0,85,0.00,,,-99.99,0.000000,,2013-12-07 12:52:00,
2013-12-07 05:02:00,24.0,20.0,-100.00,West,262,0.0,6.0,85,0.00,,,-99.99,0.000000,,2013-12-07 13:02:00,
2013-12-07 05:42:00,21.0,18.0,-100.00,SSE,163,0.0,4.0,89,0.00,,,0.11,0.000000,,2013-12-07 13:42:00,
2013-12-07 05:52:00,21.0,18.0,-100.00,SSE,163,0.0,4.0,89,0.00,,,0.11,0.000000,,2013-12-07 13:52:00,
2013-12-07 06:02:00,21.0,18.0,-100.00,SSE,163,0.0,4.0,89,0.00,,,0.11,0.000000,,2013-12-07 14:02:00,
2013-12-07 06:42:00,22.0,19.0,-100.00,NNE,19,1.0,6.0,89,0.00,,,0.11,0.000000,,2013-12-07 14:42:00,
2013-12-07 06:52:00,22.0,19.0,-100.00,NNE,19,1.0,6.0,89,0.00,,,0.11,0.000000,,2013-12-07 14:52:00,
2013-12-07 07:02:00,22.0,19.0,-100.00,NNE,19,1.0,6.0,89,0.00,,,0.11,0.000000,,2013-12-07 15:02:00,
2013-12-07 07:43:00,22.0,18.0,-100.00,WNW,296,2.0,8.0,83,0.00,,,0.11,0.000000,,2013-12-07 15:43:00,
2013-12-07 07:54:00,22.0,18.0,-100.00,WNW,296,2.0,8.0,83,0.00,,,0.11,0.000000,,2013-12-07 15:54:00,
2013-12-07 08:03:00,22.0,18.0,-100.00,WNW,296,2.0,8.0,83,0.00,,,0.11,0.000000,,2013-12-07 16:03:00,
2013-12-07 08:43:00,20.0,16.0,-100.00,West,277,0.0,7.0,85,0.00,,,0.08,3.000000,,2013-12-07 16:43:00,
2013-12-07 08:53:00,20.0,16.0,-100.00,West,277,0.0,7.0,85,0.00,,,0.08,3.000000,,2013-12-07 16:53:00,
2013-12-07 09:02:00,20.0,16.0,-100.00,West,277,0.0,7.0,85,0.00,,,0.08,3.000000,,2013-12-07 17:02:00,
2013-12-07 09:43:00,26.0,20.0,-100.00,NE,45,0.0,6.0,78,0.00,,,0.04,84.000000,,2013-12-07 17:43:00,
2013-12-07 09:52:00,26.0,20.0,-100.00,NE,45,0.0,6.0,78,0.00,,,0.04,84.000000,,2013-12-07 17:52:00,
2013-12-07 10:02:00,26.0,20.0,-100.00,NE,45,0.0,6.0,78,0.00,,,0.04,84.000000,,2013-12-07 18:02:00,
2013-12-07 10:52:00,31.0,22.0,-100.00,East,81,2.0,6.0,68,0.00,,,0.02,250.000000,,2013-12-07 18:52:00,
2013-12-07 11:02:00,31.0,22.0,-100.00,East,81,2.0,6.0,68,0.00,,,0.02,250.000000,,2013-12-07 19:02:00,
2013-12-07 11:42:00,32.0,20.0,-100.00,ENE,61,4.0,10.0,60,0.00,,,0.01,361.000000,,2013-12-07 19:42:00,
2013-12-07 11:52:00,32.0,20.0,-100.00,ENE,61,4.0,10.0,60,0.00,,,0.01,361.000000,,2013-12-07 19:52:00,
2013-12-07 12:02:00,32.0,20.0,-100.00,ENE,61,4.0,10.0,60,0.00,,,0.01,361.000000,,2013-12-07 20:02:00,
2013-12-07 12:42:00,34.0,18.0,-100.00,NE,55,3.0,11.0,52,0.00,,,0.00,418.000000,,2013-12-07 20:42:00,
2013-12-07 12:53:00,34.0,18.0,-100.00,NE,55,3.0,11.0,52,0.00,,,0.00,418.000000,,2013-12-07 20:53:00,
2013-12-07 13:02:00,34.0,18.0,-100.00,NE,55,3.0,11.0,52,0.00,,,0.00,418.000000,,2013-12-07 21:02:00,
2013-12-07 13:43:00,35.0,19.0,-100.00,NE,53,2.0,9.0,52,0.00,,,0.00,420.000000,,2013-12-07 21:43:00,
2013-12-07 13:53:00,35.0,19.0,-100.00,NE,53,2.0,9.0,52,0.00,,,0.00,420.000000,,2013-12-07 21:53:00,
2013-12-07 14:03:00,35.0,19.0,-100.00,NE,53,2.0,9.0,52,0.00,,,0.00,420.000000,,2013-12-07 22:03:00,
2013-12-07 14:42:00,34.0,17.0,-100.00,SSW,205,3.0,10.0,50,0.00,,,-99.99,370.000000,,2013-12-07 22:42:00,
2013-12-07 14:53:00,34.0,17.0,-100.00,SSW,205,3.0,10.0,50,0.00,,,-99.99,370.000000,,2013-12-07 22:53:00,
2013-12-07 15:02:00,34.0,17.0,-100.00,SSW,205,3.0,10.0,50,0.00,,,-99.99,370.000000,,2013-12-07 23:02:00,
2013-12-07 15:42:00,34.0,18.0,-100.00,NE,47,3.0,9.0,52,0.00,,,0.00,272.000000,,2013-12-07 23:42:00,
2013-12-07 15:52:00,34.0,18.0,-100.00,NE,47,3.0,9.0,52,0.00,,,0.00,272.000000,,2013-12-07 23:52:00,
2013-12-07 16:02:00,34.0,18.0,-100.00,NE,47,3.0,9.0,52,0.00,,,0.00,272.000000,,2013-12-08 00:02:00,
2013-12-07 16:42:00,31.0,18.0,-100.00,WNW,302,0.0,9.0,58,0.00,,,0.00,123.000000,,2013-12-08 00:42:00,
2013-12-07 16:52:00,31.0,18.0,-100.00,WNW,302,0.0,9.0,58,0.00,,,0.00,123.000000,,2013-12-08 00:52:00,
2013-12-07 17:02:00,31.0,18.0,-100.00,WNW,302,0.0,9.0,58,0.00,,,0.00,123.000000,,2013-12-08 01:02:00,
2013-12-07 17:42:00,27.0,16.0,-100.00,ENE,77,0.0,7.0,63,0.00,,,0.00,6.000000,,2013-12-08 01:42:00,
2013-12-07 17:52:00,27.0,16.0,-100.00,ENE,77,0.0,7.0,63,0.00,,,0.00,6.000000,,2013-12-08 01:52:00,
2013-12-07 18:02:00,27.0,16.0,-100.00,ENE,77,0.0,7.0,63,0.00,,,0.00,6.000000,,2013-12-08 02:02:00,
2013-12-07 18:43:00,25.0,16.0,-100.00,East,79,0.0,5.0,68,0.00,,,0.00,0.000000,,2013-12-08 02:43:00,
2013-12-07 18:52:00,25.0,16.0,-100.00,East,79,0.0,5.0,68,0.00,,,0.00,0.000000,,2013-12-08 02:52:00,
2013-12-07 19:02:00,25.0,16.0,-100.00,East,79,0.0,5.0,68,0.00,,,0.00,0.000000,,2013-12-08 03:02:00,
2013-12-07 19:44:00,24.0,16.0,-100.00,ESE,109,1.0,7.0,72,0.00,,,0.00,0.000000,,2013-12-08 03:44:00,
2013-12-07 19:54:00,24.0,16.0,-100.00,ESE,109,1.0,7.0,72,0.00,,,0.00,0.000000,,2013-12-08 03:54:00,
2013-12-07 20:02:00,-999.0,-99.9,-100.00,ESE,109,1.0,7.0,-999,0.00,,,0.00,0.000000,,2013-12-08 04:02:00,
2013-12-07 20:43:00,23.0,14.0,-100.00,ENE,69,0.0,8.0,69,0.00,,,0.00,0.000000,,2013-12-08 04:43:00,
2013-12-07 20:53:00,23.0,14.0,-100.00,ENE,69,0.0,8.0,69,0.00,,,0.00,0.000000,,2013-12-08 04:53:00,
2013-12-07 21:02:00,23.0,14.0,-100.00,ENE,69,0.0,8.0,69,0.00,,,0.00,0.000000,,2013-12-08 05:02:00,
2013-12-07 21:43:00,21.0,14.0,-100.00,ENE,62,0.0,4.0,74,0.00,,,0.00,0.000000,,2013-12-08 05:43:00,
2013-12-07 21:53:00,21.0,14.0,-100.00,ENE,62,0.0,4.0,74,0.00,,,0.00,0.000000,,2013-12-08 05:53:00,
2013-12-07 22:02:00,21.0,14.0,-100.00,ENE,62,0.0,4.0,74,0.00,,,0.00,0.000000,,2013-12-08 06:02:00,
2013-12-07 22:42:00,21.0,16.0,-100.00,ESE,103,0.0,4.0,79,0.00,,,0.00,0.000000,,2013-12-08 06:42:00,
2013-12-07 22:52:00,21.0,16.0,-100.00,ESE,103,0.0,4.0,79,0.00,,,0.00,0.000000,,2013-12-08 06:52:00,
2013-12-07 23:02:00,21.0,16.0,-100.00,ESE,103,0.0,4.0,79,0.00,,,0.00,0.000000,,2013-12-08 07:02:00,
2013-12-07 23:42:00,21.0,15.0,-100.00,NNW,343,1.0,6.0,78,0.00,,,0.00,0.000000,,2013-12-08 07:42:00,
2013-12-07 23:53:00,21.0,15.0,-100.00,NNW,343,1.0,6.0,78,0.00,,,0.00,0.000000,,2013-12-08 07:53:00,